| time (UTC) | temp C | wind direction | speed KPH | gust KPH | rain 1hr cm | rain 24hr cm | rain mn cm | humidity % | barometer mb |
| 20260507200053 | 17 | 47 | 6.4 | 14.5 | 0.00 | 0.00 | 0.00 | 74 | 991.6 |
| 20260507194654 | 17 | 44 | 4.8 | 11.3 | 0.00 | 0.00 | 0.00 | 74 | 992.1 |
| 20260507193037 | 17 | 77 | 6.4 | 14.5 | 0.00 | 0.00 | 0.00 | 74 | 991.8 |
| 20260507191536 | 17 | 64 | 9.7 | 19.3 | 0.00 | 0.00 | 0.00 | 76 | 991.9 |
| 20260507190014 | 16 | 77 | 6.4 | 16.1 | 0.00 | 0.00 | 0.00 | 75 | 992.2 |
| 20260507184511 | 16 | 75 | 9.7 | 22.5 | 0.00 | 0.00 | 0.00 | 76 | 992.1 |
| 20260507183052 | 16 | 73 | 9.7 | 19.3 | 0.00 | 0.00 | 0.00 | 76 | 992.1 |
| 20260507181552 | 16 | 40 | 8.0 | 17.7 | 0.00 | 0.00 | 0.00 | 75 | 992.8 |
| 20260507180042 | 16 | 36 | 12.9 | 20.9 | 0.00 | 0.00 | 0.00 | 76 | 992.8 |
| 20260507174544 | 16 | 62 | 9.7 | 19.3 | 0.00 | 0.00 | 0.00 | 78 | 992.4 |
| 20260507173108 | 15 | 44 | 8.0 | 20.9 | 0.00 | 0.00 | 0.00 | 80 | 993.1 |
| 20260507171541 | 15 | 46 | 9.7 | 16.1 | 0.00 | 0.00 | 0.00 | 80 | 992.7 |
| 20260507170039 | 15 | 41 | 9.7 | 16.1 | 0.00 | 0.00 | 0.00 | 80 | 992.6 |
| 20260507164536 | 15 | 55 | 9.7 | 14.5 | 0.00 | 0.00 | 0.00 | 79 | 993.6 |
| 20260507163038 | 15 | 36 | 4.8 | 12.9 | 0.00 | 0.00 | 0.00 | 79 | 994.2 |
| 20260507161541 | 15 | 61 | 8.0 | 14.5 | 0.00 | 0.00 | 0.00 | 80 | 992.9 |
| 20260507160016 | 15 | 34 | 4.8 | 19.3 | 0.00 | 0.00 | 0.00 | 80 | 994.2 |
| 20260507154514 | 14 | 55 | 12.9 | 19.3 | 0.00 | 0.00 | 0.00 | 80 | 993.0 |
| 20260507153058 | 14 | 41 | 14.5 | 20.9 | 0.00 | 0.00 | 0.00 | 80 | 994.0 |
| 20260507151554 | 14 | 26 | 12.9 | 24.1 | 0.00 | 0.00 | 0.00 | 81 | 993.6 |
| 20260507150039 | 13 | 51 | 6.4 | 29.0 | 0.00 | 0.00 | 0.00 | 82 | 993.4 |
| 20260507144534 | 13 | 38 | 14.5 | 27.4 | 0.00 | 0.00 | 0.00 | 83 | 993.0 |
| 20260507143019 | 13 | 48 | 16.1 | 25.7 | 0.00 | 0.00 | 0.00 | 83 | 993.2 |
| 20260507141517 | 13 | 36 | 17.7 | 27.4 | 0.00 | 0.00 | 0.00 | 84 | 993.2 |
| 20260507140014 | 13 | 11 | 22.5 | 32.2 | 0.00 | 0.00 | 0.00 | 83 | 993.0 |
| 20260507134513 | 13 | 43 | 19.3 | 30.6 | 0.00 | 0.00 | 0.00 | 83 | 992.7 |
| 20260507133011 | 13 | 37 | 24.1 | 37.0 | 0.00 | 0.00 | 0.00 | 83 | 993.3 |
| 20260507131509 | 13 | 38 | 25.7 | 35.4 | 0.00 | 0.00 | 0.00 | 82 | 993.3 |
| 20260507130002 | 13 | 38 | 16.1 | 29.0 | 0.00 | 0.00 | 0.00 | 80 | 992.8 |
| 20260507124607 | 13 | 26 | 16.1 | 25.7 | 0.00 | 0.00 | 0.00 | 79 | 993.0 |
| 20260507123041 | 13 | 18 | 12.9 | 29.0 | 0.00 | 0.00 | 0.00 | 78 | 992.7 |
| 20260507121540 | 13 | 22 | 17.7 | 24.1 | 0.00 | 0.00 | 0.00 | 78 | 992.1 |
| 20260507120017 | 13 | 40 | 16.1 | 25.7 | 0.00 | 0.00 | 0.00 | 78 | 992.0 |
| 20260507114515 | 13 | 36 | 17.7 | 27.4 | 0.00 | 0.00 | 0.00 | 78 | 992.1 |
| 20260507113116 | 13 | 26 | 12.9 | 25.7 | 0.00 | 0.00 | 0.00 | 78 | 992.0 |
| 20260507111606 | 13 | 26 | 16.1 | 24.1 | 0.00 | 0.00 | 0.00 | 79 | 991.8 |
| 20260507110057 | 13 | 17 | 11.3 | 20.9 | 0.00 | 0.00 | 0.00 | 79 | 991.8 |
| 20260507104537 | 13 | 20 | 16.1 | 27.4 | 0.00 | 0.00 | 0.00 | 79 | 991.4 |
| 20260507103043 | 13 | 36 | 9.7 | 24.1 | 0.00 | 0.00 | 0.00 | 79 | 992.0 |
| 20260507101524 | 13 | 34 | 12.9 | 20.9 | 0.00 | 0.00 | 0.00 | 80 | 991.8 |
| 20260507100021 | 13 | 31 | 14.5 | 20.9 | 0.00 | 0.00 | 0.00 | 80 | 991.8 |
| 20260507094601 | 14 | 41 | 11.3 | 20.9 | 0.00 | 0.00 | 0.00 | 81 | 991.3 |
| 20260507093055 | 14 | 42 | 9.7 | 14.5 | 0.00 | 0.00 | 0.00 | 81 | 991.6 |
| 20260507091535 | 14 | 21 | 14.5 | 20.9 | 0.00 | 0.00 | 0.00 | 81 | 991.1 |
| 20260507090033 | 14 | 49 | 6.4 | 16.1 | 0.00 | 0.00 | 0.00 | 82 | 990.8 |
| 20260507084514 | 14 | 55 | 8.0 | 17.7 | 0.00 | 0.00 | 0.00 | 82 | 990.5 |
| 20260507083014 | 14 | 47 | 9.7 | 19.3 | 0.00 | 0.00 | 0.00 | 82 | 990.4 |
| 20260507081556 | 14 | 65 | 1.6 | 17.7 | 0.00 | 0.00 | 0.00 | 82 | 990.4 |
| 20260507080056 | 14 | 54 | 8.0 | 14.5 | 0.00 | 0.00 | 0.00 | 83 | 990.3 |
| 20260507074549 | 14 | 59 | 14.5 | 20.9 | 0.00 | 0.00 | 0.00 | 83 | 989.7 |
| 20260507073048 | 14 | 74 | 9.7 | 17.7 | 0.00 | 0.00 | 0.00 | 83 | 990.0 |
| 20260507071542 | 14 | 68 | 4.8 | 17.7 | 0.00 | 0.00 | 0.00 | 83 | 990.1 |
| 20260507070050 | 14 | 46 | 11.3 | 24.1 | 0.00 | 0.00 | 0.00 | 83 | 989.7 |
| 20260507064546 | 14 | 56 | 8.0 | 22.5 | 0.00 | 0.00 | 0.00 | 83 | 990.0 |
| 20260507063037 | 15 | 32 | 16.1 | 22.5 | 0.00 | 0.00 | 0.00 | 84 | 989.9 |
| 20260507061538 | 15 | 44 | 9.7 | 16.1 | 0.00 | 0.00 | 0.00 | 83 | 990.4 |
| 20260507060033 | 15 | 77 | 8.0 | 19.3 | 0.00 | 0.00 | 0.00 | 83 | 990.0 |
| 20260507054512 | 15 | 49 | 14.5 | 22.5 | 0.00 | 0.00 | 0.00 | 83 | 989.6 |
| 20260507053011 | 15 | 55 | 11.3 | 25.7 | 0.00 | 0.00 | 0.00 | 83 | 989.9 |
| 20260507051553 | 15 | 56 | 8.0 | 20.9 | 0.00 | 0.00 | 0.00 | 83 | 989.9 |
| 20260507050049 | 15 | 55 | 11.3 | 20.9 | 0.00 | 0.00 | 0.00 | 83 | 990.0 |
| 20260507044531 | 15 | 43 | 12.9 | 22.5 | 0.00 | 0.00 | 0.00 | 82 | 990.3 |
| 20260507043030 | 15 | 41 | 17.7 | 22.5 | 0.00 | 0.00 | 0.00 | 82 | 990.0 |
| 20260507041510 | 16 | 38 | 14.5 | 19.3 | 0.00 | 0.00 | 0.00 | 83 | 990.6 |
| 20260507040008 | 15 | 44 | 14.5 | 24.1 | 0.00 | 0.00 | 0.00 | 83 | 990.2 |
| 20260507034553 | 16 | 44 | 9.7 | 16.1 | 0.00 | 0.00 | 0.00 | 83 | 989.8 |
| 20260507033101 | 16 | 47 | 6.4 | 17.7 | 0.00 | 0.00 | 0.00 | 83 | 989.9 |
| 20260507031544 | 16 | 44 | 12.9 | 20.9 | 0.00 | 0.00 | 0.00 | 83 | 989.4 |
| 20260507030025 | 16 | 38 | 9.7 | 17.7 | 0.00 | 0.00 | 0.00 | 83 | 989.9 |
| 20260507024507 | 16 | 34 | 11.3 | 19.3 | 0.00 | 0.00 | 0.00 | 83 | 989.4 |
| 20260507023002 | 16 | 40 | 8.0 | 17.7 | 0.00 | 0.00 | 0.00 | 83 | 989.4 |
| 20260507021553 | 16 | 32 | 12.9 | 19.3 | 0.00 | 0.00 | 0.00 | 83 | 989.3 |
| 20260507020053 | 16 | 32 | 11.3 | 20.9 | 0.00 | 0.00 | 0.00 | 83 | 988.8 |
| 20260507014522 | 16 | 36 | 6.4 | 14.5 | 0.00 | 0.00 | 0.00 | 83 | 988.8 |
| 20260507013023 | 16 | 35 | 6.4 | 17.7 | 0.00 | 0.00 | 0.00 | 83 | 988.3 |
| 20260507011601 | 16 | 30 | 9.7 | 17.7 | 0.00 | 0.00 | 0.00 | 83 | 988.1 |
| 20260507010059 | 16 | 33 | 6.4 | 14.5 | 0.00 | 0.00 | 0.00 | 83 | 987.7 |
| 20260507004540 | 16 | 33 | 4.8 | 12.9 | 0.00 | 0.00 | 0.00 | 83 | 987.5 |
| 20260507003040 | 16 | 38 | 3.2 | 14.5 | 0.00 | 0.00 | 0.00 | 83 | 987.5 |
| 20260507001526 | 16 | 22 | 6.4 | 17.7 | 0.00 | 0.00 | 0.00 | 83 | 987.4 |
| 20260507000020 | 16 | 49 | 6.4 | 20.9 | 0.00 | 0.00 | 0.00 | 83 | 987.4 |
| 20260506234501 | 16 | 35 | 11.3 | 20.9 | 0.00 | 0.00 | 0.00 | 83 | 987.2 |
| 20260506233100 | 16 | 24 | 4.8 | 17.7 | 0.00 | 0.00 | 0.00 | 83 | 987.4 |
| 20260506231544 | 16 | 44 | 6.4 | 16.1 | 0.00 | 0.00 | 0.00 | 83 | 987.1 |
| 20260506230037 | 15 | 28 | 8.0 | 17.7 | 0.00 | 0.00 | 0.00 | 83 | 987.0 |
| 20260506224518 | 15 | 22 | 8.0 | 19.3 | 0.00 | 0.00 | 0.00 | 83 | 987.2 |
| 20260506223019 | 15 | 34 | 14.5 | 20.9 | 0.00 | 0.00 | 0.00 | 83 | 987.1 |
| 20260506221559 | 15 | 28 | 6.4 | 17.7 | 0.00 | 0.00 | 0.00 | 83 | 987.3 |
| 20260506214545 | 15 | 32 | 9.7 | 20.9 | 0.00 | 0.00 | 0.00 | 83 | 987.2 |
| 20260506213042 | 15 | 33 | 8.0 | 20.9 | 0.00 | 0.00 | 0.00 | 83 | 987.3 |
| 20260506211524 | 15 | 36 | 8.0 | 19.3 | 0.00 | 0.00 | 0.00 | 83 | 987.3 |
| 20260506210028 | 15 | 32 | 14.5 | 25.7 | 0.00 | 0.00 | 0.00 | 82 | 987.5 |
| 20260506204503 | 16 | 17 | 17.7 | 25.7 | 0.00 | 0.00 | 0.00 | 82 | 987.6 |
| 20260506203004 | 16 | 38 | 11.3 | 24.1 | 0.00 | 0.00 | 0.00 | 82 | 987.5 |
| 20260506201546 | 16 | 24 | 9.7 | 24.1 | 0.00 | 0.00 | 0.00 | 81 | 987.3 |